Terminal Aerodrome Forecast
Issued by NWS St Louis, MO

Home | Current Version | Previous Version | Text Only | Print | Product List | Glossary On
Versions: 1 2 3 4 5 6 7 8 9 10 11 12 13 14 15 16 17 18 19 20 21
000
FTUS43 KLSX 191100 RRA
TAFSTL
TAF
KSTL 191146Z 1912/2018 12005KT P6SM SCT250
     FM191600 07006KT P6SM SCT050
     FM200200 14004KT P6SM SCT250=

USA.gov is the U.S. government's official web portal to all federal, state and local government web resources and services.